Regional Weather Roundup
Issued by NWS Columbia, SC

Home | Current Version | Previous Version | Text Only | Print | Product List | Glossary On
Versions: 1 2 3 4 5 6 7 8 9 10 11 12 13 14 15 16 17 18 19 20 21 22 23 24 25 26 27 28 29 30 31 32 33 34 35 36 37 38 39 40 41 42 43 44 45 46 47 48 49 50
000
ASUS42 KCAE 010710
RWRCAE
REGIONAL WEATHER ROUNDUP
NATIONAL WEATHER SERVICE COLUMBIA SC
200 AM EST SUN FEB 01 2015

NOTE: "FAIR" INDICATES FEW OR NO CLOUDS BELOW 12,000 FEET WITH NO
SIGNIFICANT WEATHER AND/OR OBSTRUCTIONS TO VISIBILITY.

NOT ALL STATIONS ARE QUALITY CONTROLLED BY THE NATIONAL
WEATHER SERVICE. USE DATA WITH CAUTION...ESPECIALLY
DEWPOINT OBSERVATIONS.

SCZ001>056-GAZ040-063>065-077-010800-
...UPSTATE SOUTH CAROLINA...

CITY           SKY/WX    TMP DP  RH WIND       PRES   REMARKS
ANDERSON       CLOUDY    39  29  67 CALM      30.26F
LIBERTY        CLOUDY    36  31  84 MISG      30.25S
SPARTANBURG    CLOUDY    43  21  42 CALM      30.25S
CLEMSON        CLOUDY    43  21  41 CALM      30.26F
GREENVILLE     CLOUDY    43  20  39 SW3       30.25F
GREENWOOD      CLOUDY    39  26  59 S3        30.29S
GREER          CLOUDY    42  24  49 SW3       30.24F
ROCK HILL      CLOUDY    37  22  54 S5        30.27S WCI  33
CHESTER        CLOUDY    41  25  52 SW3       30.27F
LAURENS        CLOUDY    39  30  70 SW3       30.27S


...CENTRAL SOUTH CAROLINA...

CITY           SKY/WX    TMP DP  RH WIND       PRES   REMARKS
COLUMBIA APT   CLOUDY    40  28  62 CALM      30.30R
COLUMBIA OWENS CLOUDY    40  27  59 CALM      30.32R
DARLINGTON     CLOUDY    34  25  69 S5        30.31F WCI  30
FLORENCE       CLOUDY    38  26  62 S5        30.30S WCI  34
MCENTIRE ANGB  CLOUDY    37  28  70 S1        30.31S
ORANGEBURG     CLOUDY    40  25  55 S3        30.30F
SUMTER SHAW    CLOUDY    38  24  58 S2        30.29S
NEWBERRY       CLOUDY    37  28  70 S3        30.30S
AIKEN          FAIR      41  25  52 CALM      30.32S
BARNWELL       FAIR      37  30  75 CALM      30.31S
MANNING        FAIR      43  32  65 CALM      30.31F
CAMDEN         FAIR      39  21  48 CALM      30.31S
LANCASTER      CLOUDY    37  18  44 CALM      30.29R
WINNSBORO      CLOUDY    41  21  45 S5        30.28S


...EASTERN AND COASTAL SOUTH CAROLINA...

CITY           SKY/WX    TMP DP  RH WIND       PRES   REMARKS
MYRTLE BEACH   MOCLDY    39  27  60 SW6       30.34S WCI  35
N MYRTLE BCH   PTCLDY    33  30  88 CALM      30.31S
CONWAY         FAIR      32  32 100 CALM      30.33S
MARION         FAIR      36  27  69 CALM      30.32S
HARTSVILLE     FAIR      37  27  65 CALM      30.30S
FLORENCE       CLOUDY    38  26  62 S5        30.30S WCI  34
DARLINGTON     CLOUDY    34  25  69 S5        30.31F WCI  30
CHARLESTON APT CLOUDY    41  31  67 CALM      30.31F
MOUNT PLEASANT FAIR      36  32  87 CALM      30.32S
WALTERBORO     CLOUDY    37  32  81 CALM      30.32F
BEAUFORT       PTCLDY    38  34  85 CALM      30.31F


...EASTERN GEORGIA...

CITY           SKY/WX    TMP DP  RH WIND       PRES   REMARKS
AUGUSTA BUSH F CLOUDY    38  26  62 CALM      30.31S
AUGUSTA DANIEL CLOUDY    45  20  36 S6        30.30S
THOMSON        CLOUDY    46  30  54 CALM      30.33S
WASHINGTON     FAIR      45  32  61 S3        30.27F
CLAXTON        FAIR      36  32  87 CALM      30.30F
SYLVANIA       PTSUNNY   38  35  89 CALM      30.30F
STATESBORO     MOCLDY    35  33  92 CALM      30.29F
SAVANNAH       PTCLDY    38  33  82 CALM      30.30F


...SOUTHERN NORTH CAROLINA...

CITY           SKY/WX    TMP DP  RH WIND       PRES   REMARKS
CHARLOTTE      CLOUDY    39  20  46 S3        30.26F
MONROE         CLOUDY    39  22  50 SW5       30.26S
WADESBORO      CLOUDY    32  25  75 CALM      30.29R
ROCKINGHAM       N/A     37  18  47 S3        30.29S
RUTHERFORDTON  CLOUDY    39  20  47 E3        30.25S
ASHEVILLE      CLOUDY    34  20  56 CALM      30.21F

$$


USA.gov is the U.S. government's official web portal to all federal, state and local government web resources and services.